Regional Weather Roundup
Issued by NWS

Home | Current Version | Previous Version | Graphics & Text | Print | Product List | Glossary On
Versions: 1 2 3 4 5 6 7 8 9 10 11 12 13 14 15 16 17 18 19 20 21 22 23 24 25 26 27 28 29 30 31 32 33 34 35 36 37 38 39 40 41 42 43 44 45 46 47 48 49 50
000
ASUS44 KMEG 241610
RWRTN
TENNESSEE HOURLY STATE WEATHER ROUNDUP
NATIONAL WEATHER SERVICE MEMPHIS TN
1100 AM CDT MON APR 24 2017

TNZ002-004-019-021-049-052-054-088>092-241700-
WEST TENNESSEE

CITY           SKY/WX    TMP DP  RH WIND       PRES   REMARKS
MEMPHIS INTL   MOSUNNY   66  52  60 NW7       29.91S
NWS MEMPHIS      N/A     65 N/A N/A MISG        N/A
JACKSON        RAIN      59  52  77 N5        29.90F
DYERSBURG      SUNNY     65  51  60 NE8       29.91F
SOMERVILLE     CLOUDY    61  52  72 N6        29.90R
UNION CITY     SUNNY     64  50  59 VRB5      29.89S
BOLIVAR        CLOUDY    59  52  77 VRB5      29.90R
PARIS          SUNNY     61  48  63 E7        29.89S
HUNTINGDON     MOSUNNY   63  52  67 VRB5G12   29.88S
LEXINGTON      CLOUDY    55  52  88 CALM      29.88S
SAVANNAH       CLOUDY    57  54  88 VRB3      29.88S
$$

TNZ008-025-027-028-033-062-065-066-241700-
NORTH MIDDLE TENNESSEE

CITY           SKY/WX    TMP DP  RH WIND       PRES   REMARKS
NASHVILLE      PTSUNNY   62  53  72 N5        29.86F
PORTLAND       CLOUDY    61  54  77 NE5       29.85S
CLARKSVILLE    CLOUDY    62  51  67 N8        29.88R
SMYRNA         PTSUNNY   60  54  80 NE6       29.86F
COOKEVILLE     CLOUDY    59  54  82 N6        29.82S
GALLATIN       PTSUNNY   63  54  72 NE8       29.88S
CROSSVILLE     CLOUDY    55  51  86 VRB3      29.84R
$$

TNZ061-075-076-078-094-096-097-241700-
SOUTH MIDDLE TENNESSEE

CITY           SKY/WX    TMP DP  RH WIND       PRES   REMARKS
FAYETTEVILLE   CLOUDY    57  54  88 N10       29.85R
TULLAHOMA      CLOUDY    54  54 100 N8        29.85S
MCMINNVILLE    CLOUDY    57  55  94 VRB5      29.84S
COLUMBIA       CLOUDY   N/A N/A N/A VRB3      29.85S
SHELBYVILLE    CLOUDY    57  55  94 N8        29.87R
$$

TNZ017-018-042-046-047-241700-
NORTHEAST TENNESSEE

CITY           SKY/WX    TMP DP  RH WIND       PRES   REMARKS
TRI CITIES     PTSUNNY   64  52  64 NE7       29.83S
ELIZABETHTON   MOSUNNY   63  52  67 E12       29.82S
$$

TNZ012-013-036-069-073-074-241700-
CENTRAL EAST TENNESSEE

CITY           SKY/WX    TMP DP  RH WIND       PRES   REMARKS
KNOXVILLE      CLOUDY    60  52  74 E6        29.80F
OAK RIDGE      CLOUDY    64  51  62 E8        29.82F
DOWNTOWN KNOXV MOSUNNY   64  54  68 E8        29.81S
GATLINBURG     CLOUDY    59  52  77 VRB3      29.81S
MORRISTOWN     PTSUNNY   63  54  72 E6G17     29.81S
JACKSBORO      PTSUNNY   63  52  67 VRB5      29.84S
$$

TNZ083-085-099-241700-
SOUTHEAST TENNESSEE

CITY           SKY/WX    TMP DP  RH WIND       PRES   REMARKS
CHATTANOOGA    PTSUNNY   63  54  72 N6        29.81S
$$

SKY/WX REPORTED AS FAIR MEANS FEW OR NO CLOUDS BELOW
12 THOUSAND FEET.





USA.gov is the U.S. government's official web portal to all federal, state and local government web resources and services.